#timestamp,LO_Frequency,Hit,StdDev 
1622977215.6,286047000.5,P
1622977235.4,286047001.0,N
1622977255.2,286047001.0,N
1622977275.1,286047001.0,N
1622977276.0,286047001.0,N
1622977295.8,286047000.6,N
1622977315.6,286047000.5,N
1622977335.5,286047000.0,N
1622977355.3,286046999.9,N
1622977375.2,286047000.0,N
1622977395.9,286046998.1,N
1622977415.7,286047001.2,N
1622977435.6,286046999.0,N
1622977455.4,286047000.8,N
1622977475.2,286046998.2,N
1622977495.1,286046999.5,N
1622977496.0,286046999.5,N
1622977515.8,286046999.3,N
1622977535.7,286046998.1,N
1622977555.5,286046998.2,N
1622977575.3,286046998.4,N
1622977595.2,286047000.8,N
1622977615.0,286047001.2,N
1622977615.9,286047001.2,N
1622977635.8,286046999.0,N
1622977655.6,286046997.4,N
1622977675.4,286046997.1,N
1622977695.3,286046999.6,N
1622977715.1,286046999.6,N
1622977735.8,286046999.1,N
1622977755.7,286046998.7,N
1622977775.5,286046998.9,N
1622977795.4,286046998.4,N
1622977815.2,286046999.2,N
1622977835.0,286046999.6,N
1622977835.9,286046999.6,N
1622977855.8,286046999.4,N
1622977875.6,286046999.0,N
1622977895.5,286046998.7,N
1622977915.3,286046998.3,N
1622977935.1,286047001.1,N
1622977955.9,286046998.2,N
1622977975.7,286047000.8,N
1622977995.5,286047000.7,N
1622978015.4,286047000.0,N
1622978035.2,286047000.2,N
1622978055.0,286047002.7,N
1622978056.0,286047002.7,N
1622978075.8,286047002.4,N
1622978095.6,286046999.7,N
1622978115.5,286047001.5,N
1622978135.3,286047001.5,N
1622978155.1,286047002.5,N
1622978175.9,286047002.8,N
1622978195.7,286047001.3,N
1622978215.5,286047001.8,N
1622978235.4,286047001.8,N
1622978255.2,286047003.9,N
1622978275.1,286047001.3,N
1622978276.0,286047001.3,N
1622978295.8,286047004.3,N
1622978315.6,286047001.8,N
1622978335.5,286047002.1,N
1622978355.3,286047001.9,N
1622978375.1,286047002.2,N
1622978395.9,286047002.1,N
1622978415.7,286047001.6,N
1622978435.6,286047001.8,N
1622978455.4,286046999.7,N
1622978475.2,286047001.6,N
1622978495.1,286047003.8,Y
1622978496.0,286047003.8,P
1622978515.8,286047000.4,N
1622978535.6,286047000.4,N
1622978555.5,286047000.3,N
1622978575.3,286047001.6,N
1622978595.2,286047002.3,N
1622978615.9,286047001.6,N
1622978635.7,286047003.1,N
1622978655.6,286047003.6,Y
1622978675.4,286047002.4,P
1622978695.2,286047001.4,P
1622978715.1,286047000.0,N
1622978716.0,286047000.0,N
1622978735.8,286046998.1,N
1622978755.7,286047001.0,N
1622978775.5,286047000.9,N
1622978795.3,286047002.6,N
1622978815.2,286047002.1,N
1622978835.0,286047002.2,N
1622978835.9,286047002.2,N
1622978855.8,286047002.0,N
1622978875.6,286047001.9,N
1622978895.4,286047001.5,N
1622978915.3,286047002.1,N
1622978935.1,286047000.1,N
1622978955.8,286047000.1,N
1622978975.7,286047002.2,N
1622978995.5,286047002.4,N
1622979015.3,286047002.2,N
1622979035.2,286047000.1,N
1622979055.0,286047002.2,N
1622979055.9,286047002.2,N
1622979075.8,286047002.7,N
1622979095.6,286047002.0,N
1622979115.4,286047000.5,N
1622979135.3,286047000.4,N
1622979155.1,286047002.8,N
1622979175.9,286047002.4,N
1622979195.7,286047002.6,N
1622979215.5,286047002.2,N
1622979235.4,286047002.1,N
1622979255.2,286047001.4,N
1622979275.1,286047003.3,Y
1622979276.0,286047003.3,P
1622979295.8,286047000.0,N
1622979315.6,286047002.3,N
1622979335.5,286047002.3,N
1622979355.3,286047001.8,N
1622979375.1,286046999.9,N
1622979395.9,286047000.0,N
1622979415.7,286046999.9,N
1622979435.6,286047000.3,N
1622979455.4,286047000.0,N
1622979475.2,286046999.7,N
1622979495.1,286046999.9,N
1622979496.0,286046999.9,N
1622979515.8,286047002.4,N
1622979535.6,286047000.2,N
1622979555.5,286047000.3,N
1622979575.3,286047002.7,N
1622979595.2,286047004.0,Y
1622979615.9,286047003.2,P
1622979635.7,286047002.7,N
1622979655.6,286047000.4,N
1622979675.4,286047002.3,N
1622979695.2,286047001.4,N
1622979715.1,286046999.8,N
1622979716.0,286046999.8,N
1622979735.8,286046998.2,N
1622979755.7,286046998.5,N
1622979775.5,286047001.1,N
1622979795.3,286047000.1,N
1622979815.2,286047001.6,N
1622979835.0,286047001.5,N
1622979835.9,286047001.5,N
1622979855.7,286047000.6,N
1622979875.6,286047000.1,N
1622979895.4,286047000.2,N
1622979915.3,286046999.7,N
1622979935.1,286047000.5,N
1622979936.0,286047000.5,N
1622979955.8,286047000.0,N
1622979975.7,286047000.3,N
1622979995.5,286047001.1,N
1622980015.3,286046999.9,N
1622980035.2,286047002.6,N
1622980055.0,286047002.4,N
1622980055.9,286047002.4,N
1622980075.8,286047000.2,N
1622980095.6,286047001.1,N
1622980115.4,286047002.8,N
1622980135.3,286047000.6,N
1622980155.1,286047000.5,N
1622980175.9,286046998.1,N
1622980195.7,286047000.7,N
1622980215.5,286047001.1,N
1622980235.4,286046999.0,N
1622980255.2,286046998.7,N
1622980275.0,286046998.2,N
1622980275.9,286046998.2,N
1622980295.8,286046998.2,N
1622980315.6,286047000.6,N
1622980335.5,286047002.8,N
1622980355.3,286047002.2,N
1622980375.1,286047002.7,N
1622980395.9,286047000.0,N
1622980415.7,286047000.3,N
1622980435.5,286047000.3,N
1622980455.4,286047000.4,N
1622980475.2,286047000.1,N
1622980495.1,286047000.0,N
1622980496.0,286047000.0,N
1622980515.8,286047000.8,N
1622980535.6,286046998.1,N
1622980555.5,286046998.1,N
1622980575.3,286046998.2,N
1622980595.1,286046999.2,N
1622980615.9,286046998.6,N
1622980635.7,286046998.2,N
1622980655.6,286046998.4,N
1622980675.4,286046999.0,N
1622980695.2,286046998.1,N
1622980715.1,286046998.1,N
1622980716.0,286046998.1,N
1622980735.8,286046998.2,N
1622980755.7,286047000.8,N
1622980775.5,286046998.3,N
1622980795.3,286047000.7,N
